Regional Weather Roundup
Issued by NWS San Angelo, TX

Home | Current Version | Previous Version | Text Only | Print | Product List | Glossary On
Versions: 1 2 3 4 5 6 7 8 9 10 11 12 13 14 15 16 17 18 19 20 21 22 23 24 25 26 27 28 29 30 31 32 33 34 35 36 37 38 39 40 41 42 43 44 45 46 47 48 49 50
000
ASUS44 KSJT 031510
RWRSJT
WEST CENTRAL TEXAS REGIONAL WEATHER ROUNDUP
NATIONAL WEATHER SERVICE SAN ANGELO TX
900 AM CST TUE MAR 03 2015

NOTE: "FAIR" INDICATES FEW OR NO CLOUDS BELOW 12,000 FEET WITH NO
SIGNIFICANT WEATHER AND/OR OBSTRUCTIONS TO VISIBILITY.

TXZ049-054-064>066-071>073-076>078-098-099-113-114-127-128-139-140-
154-155-168>170-031600
...LOCATIONS ACROSS WEST CENTRAL TEXAS...

CITY           SKY/WX    TMP DP  RH WIND       PRES   REMARKS
SAN ANGELO     CLOUDY    43  42  97 NE3       29.95R FOG
ABILENE        CLOUDY    44  42  93 W9        29.97R WCI  39
DYESS AFB      CLOUDY    45  42  91 N5        29.95R
JUNCTION       CLOUDY    45  43  93 CALM      29.96S
SWEETWATER     CLOUDY    45  45 100 SW8       29.97R
BROWNWOOD      PTSUNNY   45  45 100 S5        29.98S
COLEMAN        CLOUDY    43  43 100 S5        29.97R
SONORA         CLOUDY    48  48 100 S5G13     30.01R
OZONA          FOG       45  45 100 S10G17    29.98S VSB 1   WCI  39
BRADY          NOT AVBL
$$

TEXAS PANHANDLE/OKLAHOMA PANHANDLE

CITY           SKY/WX    TMP DP  RH WIND       PRES   REMARKS
AMARILLO       CLOUDY    42  36  79 SW18      29.87R WCI  34
BORGER         CLOUDY    45  35  68 SW13G20   29.86R WCI  39
CANADIAN       CLOUDY    45  38  77 CALM      29.85S
DALHART        PTSUNNY   40  35  83 SW7       29.85R WCI  35
DUMAS          CLOUDY    41  37  85 SW18G24   29.83R WCI  32
GUYMON         NOT AVBL
HEREFORD       CLOUDY    41  38  87 SW12      29.89F WCI  34
PAMPA          CLOUDY    44  36  73 SW14      29.87R WCI  37
PERRYTON       CLOUDY    40  35  85 SW15      29.82S WCI  31
$$

SOUTHERN PANHANDLE/SOUTH PLAINS/ROLLING PLAINS

CITY           SKY/WX    TMP DP  RH WIND       PRES   REMARKS
LUBBOCK        CLOUDY    39  38  96 W7        29.91S FOG     WCI  34
SNYDER         FOG       40  40  99 SW6       29.94F VSB 1/2 WCI  36
CHILDRESS      PTSUNNY   43  38  82 SW10      29.92S WCI  37
SEMINOLE       CLOUDY    40  40 100 CALM      29.90F FOG
$$

PERMIAN BASIN

CITY           SKY/WX    TMP DP  RH WIND       PRES   REMARKS
MIDLAND        FOG       44  43  96 SE10      29.87F VSB 1/4 WCI  39
ODESSA         FOG       44  42  93 SW7       29.92S VSB 1/2
WINK           FOG       43  40  89 SE8       29.89S VSB 1/2 WCI  38
$$

FAR WEST/SOUTHWEST MOUNTAINS/TRANS PECOS

CITY           SKY/WX    TMP DP  RH WIND       PRES   REMARKS
ALPINE         CLOUDY    58  38  46 SW15      29.99F
DRYDEN           N/A     45  43  93 S8        29.94F
EL PASO        LGT RAIN  53  48  83 CALM      29.90R
FORT STOCKTON  PTSUNNY   42  41  96 CALM      29.90S
GUADALUPE PASS NOT AVBL
MARFA          CLOUDY    48  39  71 SE5       29.98S
PECOS          FOG       39  38  94 E3        29.90F VSB 3/4
$$

DALLAS/FORT WORTH METROPLEX

CITY           SKY/WX    TMP DP  RH WIND       PRES   REMARKS
DFW AIRPORT    CLOUDY    43  42  97 S6        30.00R FOG     WCI  39
FTW MEACHAM    CLOUDY    46  43  89 S7        29.99R FOG
DAL-EXECUTIVE  CLOUDY    45  45 100 S7        29.99R FOG
GRAND PRAIRIE  CLOUDY    45  45 100 S6        30.02R FOG
ADDISON        CLOUDY    45  43  93 CALM      30.02R FOG
MESQUITE       CLOUDY    45  43  93 SE8       30.01S FOG
LANCASTER      CLOUDY    44  42  95 S5        30.02F FOG
$$

NORTH CENTRAL TEXAS

CITY           SKY/WX    TMP DP  RH WIND       PRES   REMARKS
SHRMAN/DENISON FOG       44  44 100 CALM      30.02R VSB 1/4
GAINESVILLE    CLOUDY    41  40  99 CALM      30.02R FOG
BRIDGEPORT     CLOUDY    42  42 100 CALM      30.02R FOG
DENTON         CLOUDY    43  43 100 S5        30.00R FOG
WAXAHACHIE     CLOUDY    43  43 100 S5        30.01S FOG
GRANBURY       CLOUDY    46  44  93 E3        30.01R FOG
$$

WESTERN NORTH TEXAS

CITY           SKY/WX    TMP DP  RH WIND       PRES   REMARKS
WICHITA FALLS  CLOUDY    40  39  97 S7        29.98S FOG     WCI  35
VERNON         CLOUDY    43  36  75 S9        29.96S WCI  38
BRECKENRIDGE   CLOUDY    45  43  93 CALM      29.97S
COMANCHE       CLOUDY    47  47 100 SE5       29.97S
$$

CENTRAL AND SOUTH CENTRAL TEXAS

CITY           SKY/WX    TMP DP  RH WIND       PRES   REMARKS
AUSTIN/BERGSTM FOG       43  43 100 CALM      30.02F VSB 1/4
WACO           FOG       41  41 100 CALM      30.02S VSB 1/2
HILLSBORO      FOG       44  43  97 SE7       30.00F VSB 3/4 WCI  40
TEMPLE         CLOUDY    43  37  81 CALM      30.01R VSB 1/2
KILLEEN-GRAY   DRZL/FOG  41  41 100 SE3       30.00S VSB 1/2
FORT HOOD      FOG       41  41 100 SW3       30.00S VSB 1/2
GEORGETOWN     FOG       43  41  93 CALM      30.01F VSB 1/2
LAGO VISTA     LGT RAIN  44  42  95 CALM      30.00F VSB<1/4
SAN MARCOS     FOG       45  43  93 NE5       30.02F VSB 1/4
NEW BRAUNFELS  FOG       47  47 100 CALM      30.01S VSB 1/2
RANDOLPH AFB   FOG       48  45  88 N5        30.01S VSB 1
SAN ANTONIO    DRZL/FOG  50  49  96 E3        30.01S VSB 1/2
STINSON        CLOUDY    49  48  97 CALM      30.00S FOG
PLEASANTON     NOT AVBL
LA GRANGE      FOG       50  50 100 E5        30.00F VSB 1/4
GIDDINGS       FOG       47  47  99 CALM      30.05F VSB 1/4
$$

EAST TEXAS

CITY           SKY/WX    TMP DP  RH WIND       PRES   REMARKS
PARIS          CLOUDY    41  37  87 SE8       30.03R VSB 1   WCI  36
CLARKSVILLE    NOT AVBL
TYLER          FOG       48  46  93 SE7       30.03F VSB 1/4
LONGVIEW       FOG       46  44  93 SE3       30.05F VSB 1/4
PALESTINE      FOG       49  49 100 E5        30.04F VSB 3/4
NACOGDOCHES    CLOUDY    43  43 100 CALM      30.06S VSB 1/4
$$

TEXAS HILL COUNTRY AND EDWARDS PLATEAU

CITY           SKY/WX    TMP DP  RH WIND       PRES   REMARKS
LLANO          FOG       43  43 100 SE5       30.03F VSB 3/4
HORSESHOE BAY  CLOUDY   N/A N/A N/A CALM      30.01S
KERRVILLE      FOG       49  47  96 SE3       30.00S VSB 1/2
FREDERICKSBRG  FOG       45  45  99 CALM      29.98F VSB 1/4
ROCKSPRINGS    NOT AVBL
HONDO          CLOUDY    50  48  93 CALM      30.03R
UVALDE         CLOUDY    48  47  97 E3        30.01S
DEL RIO        CLOUDY    50  47  89 SE7       29.99S
$$

SOUTHEAST TEXAS

CITY           SKY/WX    TMP DP  RH WIND       PRES   REMARKS
COLLEGE STN    FOG       48  48 100 CALM      30.03F VSB 1/4
CALDWELL       FOG       46  46 100 CALM      30.05F VSB<1/4
CROCKETT       FOG       55  55 100 SE3       30.07S VSB 1/2
BRENHAM        FOG       53  53  98 CALM      30.03F VSB 1/4
HUNTSVILLE     FOG       59  59 100 VRB6      30.03S VSB 1/4
CONROE         FOG       59  58  96 SE6       30.05S VSB 1/4
HOUSTON BUSH   FOG       61  61 100 E6        30.04S VSB 1/8
HOUSTON HOBBY  FOG       62  62 100 E5        30.04S VSB 1/4
PERLAND        FOG       64  64 100 SE5       30.05S VSB 1/4
WHARTON        FOG       59  59  99 E3        30.04S VSB 1/4
$$

THE UPPER TEXAS COAST

CITY           SKY/WX    TMP DP  RH WIND       PRES   REMARKS
ORANGE         LGT RAIN  60  60 100 SE3       30.09R VSB 1/2
PORT ARTHUR    FOG       62  61  96 SE8       30.06R VSB 3/4
GALVESTON      FOG       63  63 100 SE10      30.05S VSB 1/4
ANGLETON       CLOUDY    66  66 100 S12       30.04R
BAY CITY       CLOUDY    67  67 100 S9        30.03S FOG
$$

TEXAS COASTAL BEND, RIO GRANDE PLAINS DEEP SOUTH TEXAS

CITY           SKY/WX    TMP DP  RH WIND       PRES   REMARKS
VICTORIA       FOG       57  57 100 E3        30.02S VSB 1/4
BEEVILLE       FOG       50  50 100 NW5       30.02R VSB 1/4
ROCKPORT       FOG       65  64  97 VRB6      30.01R VSB 1/4
PORT ARANSAS   FOG       62  62 100 W6        30.01R VSB<1/4
PORT LAVACA    NOT AVBL
CORPUS CHRISTI DRZL/FOG  55  55 100 NW6       30.01S VSB 1/4
KINGSVILLE NAS FOG       54  54 100 NW6       30.02S VSB 1/16
COTULLA        CLOUDY    49  47  93 SE3       30.02R FOG
LAREDO         CLOUDY    49  49 100 CALM      30.04R FOG
BROWNSVILLE    FOG       60  60 100 CALM      30.03R VSB 1/2
PORT ISABEL    FOG       59  59 100 CALM      30.02R VSB 1/4
HEBBRONVILLE   HVY RAIN N/A N/A N/A CALM      30.02S VSB 1/2
MCALLEN        CLOUDY    55  54  96 CALM      30.03S FOG
WESLACO        RAIN      54  52  95 CALM      30.02S VSB 1/4
FALFURRIAS     CLOUDY    53  51  95 NW3       30.02R VSB 1/2
EDINBURG       CLOUDY    55  53  93 CALM      30.03R FOG
$$



USA.gov is the U.S. government's official web portal to all federal, state and local government web resources and services.